Location: Newark
(33.2833°N, 8.3333°W)
Time: 08:21:37
(UTC+00:00)

Hubble Space Telescope - Pass Details

Date: 20 September 2019
Orbit: 536 x 540 km, 28.5° (Epoch: 19 October)

Event Time Altitude Azimuth Distance (km) Brightness Sun altitude
Exits shadow 04:35:43 35° 167° (SSE) 867 1.7 -22.2°
Drops below altitude 10° 04:38:57 10° 120° (ESE) 1,778 4.0 -21.6°
Sets 04:41:19 0° 112° (ESE) 2,669 5.1 -21.1°
